QPF
0.05 0.06 0.07 0.07 0.07 0.06 0.07 0.07 0.06 0.06 0.06 0.08 0.10 0.08 0.09 0.10 0.09 0.08 0.07 0.07 0.06 0.05 0.04 0.04 0.03 0.03 0.03 0.03 0.04 0.04 0.04 0.05 0.05 0.03 0.03 0.04 0.06 0.07 0.08 0.09 0.11 0.10 0.07
0.05 0.06 0.07 0.08 0.07 0.06 0.06 0.06 0.07 0.07 0.07 0.08 0.11 0.10 0.09 0.10 0.11 0.11 0.10 0.08 0.07 0.07 0.05 0.04 0.04 0.03 0.04 0.04 0.04 0.03 0.03 0.03 0.03 0.03 0.03 0.04 0.06 0.06 0.06 0.07 0.09 0.11 0.08
0.03 0.05 0.07 0.07 0.07 0.05 0.04 0.04 0.04 0.05 0.07 0.08 0.10 0.12 0.11 0.11 0.12 0.14 0.14 0.13 0.10 0.09 0.07 0.06 0.06 0.05 0.06 0.05 0.04 0.04 0.04 0.03 0.02 0.03 0.03 0.04 0.05 0.07 0.07 0.07 0.08 0.10 0.10
0.01 0.03 0.05 0.06 0.07 0.06 0.05 0.04 0.03 0.04 0.05 0.06 0.08 0.10 0.11 0.11 0.10 0.10 0.12 0.14 0.14 0.12 0.10 0.08 0.07 0.06 0.06 0.06 0.05 0.04 0.04 0.03 0.03 0.03 0.03 0.04 0.04 0.06 0.08 0.08 0.09 0.10 0.11
0.01 0.02 0.03 0.04 0.04 0.05 0.05 0.04 0.03 0.03 0.04 0.05 0.06 0.08 0.10 0.10 0.09 0.08 0.09 0.10 0.11 0.13 0.12 0.10 0.08 0.07 0.06 0.07 0.06 0.05 0.04 0.04 0.04 0.04 0.04 0.04 0.04 0.05 0.08 0.10 0.09 0.10 0.09
0.02 0.02 0.03 0.04 0.03 0.03 0.03 0.03 0.02 0.02 0.02 0.03 0.04 0.06 0.07 0.08 0.08 0.08 0.09 0.09 0.08 0.09 0.10 0.10 0.09 0.08 0.08 0.07 0.07 0.07 0.06 0.05 0.04 0.04 0.04 0.04 0.04 0.04 0.05 0.08 0.10 0.10 0.10
0.04 0.03 0.03 0.04 0.04 0.03 0.02 0.02 0.02 0.02 0.02 0.02 0.03 0.04 0.05 0.06 0.07 0.07 0.08 0.09 0.09 0.09 0.09 0.09 0.09 0.08 0.09 0.08 0.07 0.08 0.07 0.06 0.05 0.04 0.04 0.04 0.04 0.04 0.04 0.06 0.08 0.08 0.07
0.05 0.04 0.04 0.03 0.03 0.03 0.03 0.03 0.02 0.02 0.02 0.03 0.04 0.05 0.06 0.06 0.06 0.06 0.06 0.06 0.07 0.08 0.09 0.11 0.12 0.11 0.09 0.07 0.06 0.06 0.06 0.05 0.04 0.03 0.03 0.04 0.05 0.05 0.05 0.07 0.08 0.08 0.08
0.04 0.04 0.04 0.04 0.04 0.04 0.04 0.04 0.03 0.02 0.02 0.03 0.04 0.05 0.06 0.06 0.06 0.06 0.07 0.06 0.06 0.05 0.04 0.06 0.09 0.10 0.10 0.09 0.07 0.06 0.06 0.05 0.04 0.04 0.05 0.05 0.06 0.07 0.07 0.08 0.09 0.10 0.10
0.03 0.04 0.04 0.04 0.05 0.05 0.05 0.05 0.04 0.04 0.03 0.03 0.03 0.05 0.05 0.06 0.07 0.07 0.07 0.06 0.06 0.06 0.05 0.04 0.06 0.08 0.10 0.11 0.09 0.08 0.08 0.07 0.06 0.05 0.05 0.06 0.06 0.08 0.09 0.09 0.08 0.08 0.08
0.02 0.02 0.03 0.03 0.03 0.04 0.04 0.05 0.05 0.05 0.05 0.04 0.04 0.04 0.05 0.05 0.05 0.06 0.07 0.07 0.06 0.06 0.07 0.06 0.06 0.07 0.09 0.11 0.12 0.11 0.09 0.08 0.07 0.06 0.05 0.05 0.06 0.07 0.09 0.10 0.10 0.08 0.07
0.01 0.02 0.02 0.02 0.02 0.03 0.03 0.03 0.04 0.05 0.05 0.05 0.05 0.05 0.05 0.05 0.05 0.05 0.06 0.07 0.06 0.05 0.07 0.08 0.09 0.09 0.09 0.10 0.11 0.10 0.10 0.09 0.08 0.07 0.07 0.07 0.07 0.06 0.07 0.09 0.10 0.10 0.08
0.01 0.01 0.01 0.01 0.02 0.02 0.02 0.03 0.03 0.04 0.05 0.04 0.04 0.05 0.05 0.06 0.07 0.07 0.07 0.06 0.06 0.05 0.05 0.06 0.07 0.08 0.09 0.09 0.10 0.11 0.10 0.10 0.11 0.11 0.09 0.08 0.07 0.07 0.07 0.08 0.09 0.09 0.08
0.01 0.01 0.01 0.01 0.01 0.02 0.02 0.02 0.03 0.05 0.05 0.05 0.04 0.05 0.05 0.05 0.06 0.07 0.07 0.07 0.07 0.07 0.06 0.05 0.05 0.06 0.07 0.08 0.09 0.09 0.11 0.11 0.11 0.12 0.12 0.10 0.08 0.08 0.08 0.08 0.08 0.08 0.09
0.01 0.01 0.01 0.01 0.01 0.02 0.02 0.03 0.04 0.05 0.06 0.06 0.05 0.05 0.05 0.05 0.06 0.06 0.07 0.07 0.07 0.07 0.07 0.07 0.06 0.05 0.06 0.07 0.08 0.08 0.08 0.09 0.10 0.09 0.10 0.10 0.10 0.10 0.09 0.09 0.09 0.09 0.09
0.01 0.01 0.01 0.02 0.02 0.02 0.01 0.02 0.03 0.04 0.04 0.05 0.05 0.05 0.05 0.05 0.05 0.06 0.06 0.07 0.07 0.07 0.07 0.08 0.07 0.06 0.05 0.06 0.07 0.08 0.09 0.09 0.09 0.09 0.09 0.10 0.10 0.10 0.10 0.09 0.08 0.08 0.07
0.01 0.02 0.02 0.02 0.03 0.02 0.02 0.03 0.04 0.03 0.03 0.03 0.03 0.03 0.04 0.05 0.05 0.06 0.07 0.06 0.07 0.07 0.07 0.07 0.07 0.07 0.06 0.05 0.06 0.07 0.08 0.08 0.09 0.08 0.08 0.08 0.09 0.09 0.09 0.08 0.07 0.07 0.07
0.01 0.02 0.02 0.03 0.03 0.03 0.03 0.04 0.05 0.04 0.03 0.03 0.03 0.03 0.04 0.05 0.06 0.07 0.08 0.07 0.08 0.07 0.06 0.05 0.06 0.06 0.06 0.06 0.05 0.05 0.06 0.07 0.07 0.07 0.07 0.07 0.07 0.07 0.08 0.07 0.07 0.06 0.06
0.02 0.02 0.03 0.03 0.04 0.04 0.04 0.05 0.05 0.04 0.03 0.03 0.03 0.04 0.05 0.05 0.05 0.07 0.07 0.06 0.06 0.07 0.06 0.05 0.05 0.05 0.06 0.06 0.06 0.05 0.06 0.06 0.06 0.06 0.06 0.06 0.06 0.06 0.07 0.06 0.06 0.06 0.06
0.02 0.02 0.03 0.04 0.04 0.04 0.04 0.06 0.06 0.04 0.03 0.03 0.03 0.04 0.05 0.05 0.06 0.07 0.07 0.05 0.04 0.05 0.05 0.05 0.05 0.05 0.05 0.06 0.06 0.06 0.06 0.06 0.05 0.05 0.05 0.05 0.05 0.05 0.06 0.06 0.06 0.06 0.06
0.02 0.02 0.03 0.04 0.04 0.05 0.06 0.06 0.05 0.04 0.03 0.03 0.03 0.04 0.05 0.05 0.05 0.06 0.06 0.05 0.04 0.04 0.04 0.04 0.04 0.04 0.05 0.05 0.06 0.06 0.05 0.05 0.05 0.05 0.05 0.04 0.04 0.05 0.05 0.05 0.06 0.05 0.05
0.03 0.03 0.03 0.04 0.05 0.05 0.06 0.06 0.05 0.04 0.03 0.04 0.04 0.05 0.05 0.05 0.05 0.05 0.05 0.05 0.04 0.04 0.03 0.03 0.04 0.04 0.04 0.05 0.06 0.06 0.06 0.05 0.05 0.04 0.04 0.04 0.04 0.04 0.04 0.05 0.05 0.05 0.05
0.03 0.04 0.04 0.05 0.05 0.05 0.05 0.05 0.05 0.05 0.04 0.04 0.04 0.05 0.04 0.04 0.04 0.04 0.04 0.04 0.04 0.03 0.03 0.03 0.03 0.03 0.04 0.04 0.05 0.05 0.05 0.05 0.04 0.04 0.04 0.04 0.04 0.04 0.04 0.04 0.05 0.05 0.05
0.03 0.04 0.04 0.04 0.05 0.05 0.05 0.05 0.05 0.05 0.04 0.04 0.04 0.04 0.04 0.04 0.04 0.03 0.04 0.04 0.03 0.03 0.03 0.03 0.03 0.03 0.04 0.04 0.04 0.04 0.04 0.04 0.04 0.03 0.03 0.03 0.03 0.03 0.03 0.04 0.04 0.04 0.04
0.03 0.04 0.04 0.04 0.04 0.04 0.04 0.04 0.04 0.04 0.04 0.04 0.05 0.04 0.05 0.05 0.04 0.04 0.04 0.03 0.03 0.03 0.03 0.02 0.02 0.02 0.03 0.03 0.03 0.04 0.04 0.04 0.04 0.04 0.04 0.04 0.03 0.03 0.03 0.03 0.04 0.04 0.04
0.03 0.04 0.04 0.04 0.04 0.04 0.04 0.04 0.04 0.04 0.04 0.05 0.05 0.05 0.05 0.05 0.04 0.04 0.03 0.03 0.03 0.02 0.02 0.02 0.02 0.02 0.02 0.03 0.03 0.03 0.04 0.05 0.05 0.04 0.04 0.05 0.04 0.03 0.03 0.03 0.03 0.04 0.04
MSLP
1024.55 1024.36 1023.96 1023.38 1022.67 1021.92 1021.17 1020.45 1019.75 1018.99 1018.10 1017.00 1015.62 1013.94 1012.00 1009.90 1007.79 1005.83 1004.17 1002.96 1002.25 1002.00 1002.13 1002.50 1002.91 1003.22 1003.30 1003.06 1002.54 1001.83 1001.07 1000.44 1000.09 1000.16 1000.72 1001.77 1003.22 1004.96 1006.83 1008.70 1010.43 1011.96 1013.24
1023.90 1023.65 1023.22 1022.63 1021.95 1021.25 1020.57 1019.92 1019.26 1018.52 1017.61 1016.44 1014.91 1013.03 1010.85 1008.48 1006.08 1003.84 1001.93 1000.52 999.66 999.34 999.48 999.91 1000.45 1000.92 1001.17 1001.13 1000.79 1000.24 999.63 999.11 998.85 999.00 999.63 1000.74 1002.25 1004.05 1005.99 1007.92 1009.71 1011.27 1012.59
1023.37 1023.06 1022.57 1021.95 1021.27 1020.58 1019.94 1019.33 1018.71 1017.98 1017.06 1015.84 1014.22 1012.22 1009.88 1007.32 1004.72 1002.27 1000.17 998.58 997.57 997.15 997.22 997.62 998.19 998.73 999.08 999.17 998.98 998.59 998.12 997.75 997.64 997.90 998.63 999.83 1001.41 1003.27 1005.25 1007.21 1009.02 1010.61 1011.92
1022.99 1022.60 1022.05 1021.38 1020.67 1019.98 1019.34 1018.75 1018.14 1017.43 1016.50 1015.26 1013.62 1011.57 1009.16 1006.53 1003.83 1001.28 999.06 997.33 996.19 995.63 995.57 995.87 996.36 996.85 997.21 997.34 997.23 996.96 996.64 996.42 996.45 996.86 997.71 999.00 1000.66 1002.57 1004.58 1006.55 1008.36 1009.93 1011.23
1022.74 1022.29 1021.67 1020.96 1020.20 1019.49 1018.83 1018.22 1017.61 1016.90 1015.98 1014.76 1013.15 1011.13 1008.77 1006.17 1003.49 1000.93 998.67 996.87 995.61 994.89 994.66 994.77 995.09 995.44 995.69 995.77 995.67 995.46 995.24 995.15 995.32 995.87 996.84 998.22 999.94 1001.88 1003.90 1005.86 1007.65 1009.20 1010.48
1022.58 1022.08 1021.43 1020.67 1019.88 1019.13 1018.44 1017.80 1017.17 1016.46 1015.56 1014.38 1012.84 1010.93 1008.69 1006.22 1003.67 1001.20 998.98 997.16 995.81 994.94 994.50 994.38 994.44 994.56 994.62 994.56 994.39 994.16 993.99 993.98 994.26 994.91 995.97 997.43 999.19 1001.14 1003.15 1005.09 1006.85 1008.38 1009.64
1022.44 1021.94 1021.28 1020.50 1019.69 1018.91 1018.18 1017.51 1016.85 1016.13 1015.26 1014.14 1012.71 1010.95 1008.89 1006.63 1004.27 1001.97 999.86 998.07 996.67 995.66 995.01 994.62 994.40 994.22 994.03 993.76 993.45 993.15 992.95 992.97 993.30 994.01 995.12 996.60 998.37 1000.31 1002.29 1004.19 1005.92 1007.42 1008.67
1022.29 1021.81 1021.17 1020.41 1019.60 1018.81 1018.06 1017.36 1016.68 1015.95 1015.10 1014.05 1012.73 1011.15 1009.31 1007.28 1005.17 1003.08 1001.14 999.43 998.01 996.90 996.06 995.41 994.89 994.41 993.93 993.42 992.92 992.48 992.21 992.20 992.51 993.22 994.32 995.78 997.50 999.38 1001.30 1003.14 1004.82 1006.30 1007.54
1022.06 1021.64 1021.05 1020.34 1019.58 1018.80 1018.05 1017.34 1016.63 1015.90 1015.07 1014.08 1012.89 1011.48 1009.86 1008.08 1006.23 1004.38 1002.62 1001.03 999.64 998.46 997.46 996.60 995.81 995.05 994.30 993.55 992.85 992.26 991.87 991.76 992.01 992.64 993.66 995.02 996.64 998.41 1000.22 1001.97 1003.59 1005.03 1006.27
1021.74 1021.39 1020.89 1020.26 1019.56 1018.84 1018.11 1017.41 1016.70 1015.97 1015.16 1014.23 1013.14 1011.89 1010.47 1008.94 1007.33 1005.71 1004.15 1002.70 1001.37 1000.17 999.08 998.07 997.08 996.10 995.12 994.17 993.28 992.53 992.01 991.77 991.89 992.38 993.25 994.45 995.89 997.49 999.14 1000.76 1002.28 1003.67 1004.90
1021.32 1021.06 1020.66 1020.14 1019.53 1018.88 1018.21 1017.54 1016.85 1016.13 1015.35 1014.48 1013.49 1012.36 1011.12 1009.79 1008.41 1007.01 1005.65 1004.34 1003.11 1001.94 1000.83 999.73 998.63 997.51 996.39 995.28 994.26 993.37 992.71 992.32 992.27 992.58 993.23 994.20 995.40 996.76 998.19 999.63 1001.01 1002.30 1003.49
1020.84 1020.66 1020.36 1019.95 1019.46 1018.91 1018.32 1017.70 1017.06 1016.37 1015.63 1014.81 1013.89 1012.89 1011.79 1010.63 1009.44 1008.24 1007.05 1005.90 1004.79 1003.71 1002.63 1001.53 1000.40 999.24 998.06 996.88 995.77 994.79 994.00 993.47 993.23 993.31 993.71 994.39 995.29 996.35 997.51 998.71 999.90 1001.05 1002.16
1020.34 1020.23 1020.02 1019.72 1019.34 1018.90 1018.41 1017.87 1017.29 1016.66 1015.96 1015.20 1014.36 1013.45 1012.47 1011.46 1010.42 1009.39 1008.37 1007.38 1006.40 1005.43 1004.45 1003.43 1002.35 1001.23 1000.07 998.90 997.78 996.75 995.87 995.21 994.79 994.63 994.75 995.11 995.67 996.40 997.24 998.15 999.10 1000.06 1001.02
1019.88 1019.81 1019.68 1019.47 1019.19 1018.85 1018.46 1018.01 1017.51 1016.95 1016.32 1015.63 1014.86 1014.03 1013.16 1012.27 1011.36 1010.47 1009.60 1008.76 1007.93 1007.10 1006.25 1005.36 1004.41 1003.39 1002.33 1001.24 1000.16 999.13 998.22 997.45 996.87 996.49 996.33 996.37 996.60 996.97 997.47 998.06 998.72 999.44 1000.21
1019.49 1019.45 1019.35 1019.21 1019.01 1018.77 1018.47 1018.12 1017.70 1017.22 1016.67 1016.05 1015.36 1014.62 1013.84 1013.05 1012.26 1011.49 1010.75 1010.05 1009.36 1008.68 1007.99 1007.25 1006.46 1005.61 1004.69 1003.73 1002.75 1001.78 1000.87 1000.04 999.34 998.78 998.38 998.14 998.04 998.08 998.23 998.49 998.85 999.29 999.82
1019.22 1019.16 1019.08 1018.97 1018.83 1018.65 1018.44 1018.17 1017.84 1017.44 1016.98 1016.44 1015.83 1015.17 1014.48 1013.78 1013.09 1012.43 1011.80 1011.22 1010.67 1010.13 1009.59 1009.03 1008.41 1007.73 1006.99 1006.19 1005.34 1004.47 1003.60 1002.78 1002.01 1001.33 1000.75 1000.27 999.91 999.65 999.50 999.46 999.51 999.67 999.93
1019.05 1018.97 1018.88 1018.77 1018.66 1018.53 1018.37 1018.17 1017.91 1017.60 1017.21 1016.75 1016.23 1015.66 1015.05 1014.44 1013.84 1013.26 1012.73 1012.25 1011.81 1011.40 1011.00 1010.58 1010.13 1009.63 1009.06 1008.42 1007.72 1006.98 1006.20 1005.42 1004.64 1003.91 1003.22 1002.59 1002.04 1001.56 1001.17 1000.86 1000.65 1000.53 1000.52
1018.97 1018.85 1018.73 1018.62 1018.51 1018.40 1018.27 1018.12 1017.93 1017.68 1017.36 1016.98 1016.54 1016.05 1015.52 1014.99 1014.46 1013.97 1013.52 1013.12 1012.77 1012.45 1012.16 1011.86 1011.54 1011.18 1010.77 1010.28 1009.73 1009.12 1008.45 1007.75 1007.03 1006.30 1005.59 1004.89 1004.23 1003.62 1003.06 1002.56 1002.12 1001.77 1001.51
1018.92 1018.77 1018.62 1018.50 1018.38 1018.28 1018.17 1018.05 1017.89 1017.69 1017.44 1017.12 1016.75 1016.33 1015.88 1015.42 1014.96 1014.53 1014.14 1013.80 1013.51 1013.25 1013.03 1012.82 1012.59 1012.34 1012.04 1011.69 1011.26 1010.78 1010.23 1009.64 1009.00 1008.34 1007.66 1006.97 1006.29 1005.63 1004.98 1004.36 1003.78 1003.25 1002.78
1018.86 1018.69 1018.54 1018.40 1018.28 1018.17 1018.07 1017.96 1017.83 1017.66 1017.45 1017.19 1016.87 1016.52 1016.13 1015.73 1015.33 1014.95 1014.60 1014.29 1014.04 1013.82 1013.63 1013.45 1013.28 1013.09 1012.87 1012.60 1012.28 1011.90 1011.47 1010.99 1010.46 1009.90 1009.31 1008.69 1008.05 1007.40 1006.74 1006.08 1005.42 1004.78 1004.16
1018.75 1018.59 1018.45 1018.31 1018.19 1018.08 1017.98 1017.87 1017.75 1017.60 1017.42 1017.19 1016.92 1016.61 1016.28 1015.92 1015.57 1015.23 1014.91 1014.62 1014.38 1014.16 1013.98 1013.81 1013.65 1013.48 1013.29 1013.07 1012.81 1012.51 1012.18 1011.80 1011.38 1010.93 1010.45 1009.93 1009.39 1008.81 1008.19 1007.55 1006.88 1006.18 1005.48
1018.56 1018.45 1018.33 1018.22 1018.11 1018.01 1017.90 1017.80 1017.67 1017.53 1017.36 1017.15 1016.91 1016.64 1016.34 1016.03 1015.71 1015.39 1015.09 1014.81 1014.56 1014.33 1014.12 1013.93 1013.75 1013.57 1013.37 1013.17 1012.94 1012.70 1012.42 1012.13 1011.81 1011.46 1011.09 1010.68 1010.24 1009.76 1009.23 1008.64 1008.01 1007.32 1006.60
1018.31 1018.25 1018.18 1018.11 1018.02 1017.93 1017.83 1017.72 1017.60 1017.45 1017.28 1017.08 1016.86 1016.61 1016.34 1016.05 1015.76 1015.46 1015.16 1014.88 1014.61 1014.35 1014.11 1013.88 1013.66 1013.44 1013.22 1013.00 1012.78 1012.55 1012.31 1012.06 1011.81 1011.55 1011.27 1010.96 1010.62 1010.24 1009.80 1009.31 1008.74 1008.11 1007.42
1018.01 1018.02 1018.01 1017.98 1017.92 1017.85 1017.75 1017.64 1017.51 1017.35 1017.18 1016.98 1016.77 1016.53 1016.27 1016.00 1015.72 1015.43 1015.13 1014.84 1014.55 1014.26 1013.97 1013.70 1013.43 1013.16 1012.91 1012.66 1012.41 1012.18 1011.95 1011.74 1011.53 1011.31 1011.10 1010.87 1010.61 1010.32 1009.98 1009.57 1009.10 1008.55 1007.94
1017.70 1017.78 1017.82 1017.83 1017.80 1017.74 1017.65 1017.53 1017.39 1017.23 1017.05 1016.84 1016.63 1016.39 1016.14 1015.88 1015.60 1015.30 1015.00 1014.69 1014.37 1014.05 1013.72 1013.40 1013.09 1012.78 1012.48 1012.20 1011.93 1011.68 1011.45 1011.24 1011.05 1010.87 1010.69 1010.51 1010.32 1010.10 1009.84 1009.52 1009.14 1008.70 1008.18
1017.44 1017.56 1017.64 1017.67 1017.66 1017.61 1017.52 1017.39 1017.24 1017.06 1016.87 1016.66 1016.43 1016.19 1015.93 1015.66 1015.38 1015.07 1014.75 1014.42 1014.07 1013.71 1013.35 1012.99 1012.63 1012.28 1011.95 1011.64 1011.35 1011.08 1010.85 1010.64 1010.45 1010.28 1010.13 1009.98 1009.83 1009.67 1009.48 1009.24 1008.96 1008.63 1008.22
Thickness
5413 5414 5414 5416 5418 5420 5422 5425 5427 5430 5433 5435 5437 5440 5443 5446 5449 5452 5455 5458 5460 5464 5467 5470 5474 5477 5481 5484 5488 5493 5498 5505 5514 5523 5525 5528 5531 5534 5539 5542 5546 5548 5552
5401 5402 5404 5406 5408 5410 5412 5415 5417 5419 5421 5424 5425 5428 5431 5434 5438 5441 5444 5448 5451 5454 5457 5460 5463 5466 5470 5474 5478 5483 5488 5495 5501 5508 5513 5516 5520 5524 5528 5532 5535 5538 5542
5389 5391 5394 5396 5398 5399 5401 5404 5406 5408 5410 5412 5414 5417 5420 5423 5426 5430 5434 5438 5441 5444 5447 5450 5454 5456 5460 5464 5468 5473 5478 5484 5490 5495 5501 5505 5508 5512 5516 5520 5524 5528 5532
5378 5380 5383 5385 5387 5388 5390 5393 5394 5396 5398 5400 5403 5405 5408 5412 5415 5419 5423 5427 5431 5434 5437 5440 5443 5447 5451 5455 5458 5463 5468 5473 5478 5484 5489 5493 5497 5501 5504 5509 5514 5517 5521
5367 5369 5373 5375 5376 5377 5379 5382 5383 5385 5387 5389 5391 5394 5398 5401 5405 5409 5413 5417 5421 5425 5428 5431 5435 5438 5441 5444 5448 5453 5458 5462 5467 5473 5479 5483 5488 5491 5495 5499 5503 5507 5510
5356 5359 5362 5363 5365 5367 5368 5370 5372 5374 5376 5378 5381 5384 5387 5392 5396 5398 5401 5407 5411 5415 5419 5422 5425 5428 5432 5433 5438 5442 5447 5452 5457 5462 5469 5474 5480 5482 5485 5488 5492 5495 5498
5345 5347 5350 5352 5354 5356 5357 5359 5361 5363 5365 5368 5370 5373 5377 5382 5385 5388 5391 5395 5400 5404 5408 5412 5415 5419 5421 5424 5428 5431 5436 5440 5445 5451 5457 5464 5467 5472 5473 5477 5481 5485 5489
5334 5337 5339 5341 5343 5345 5346 5348 5350 5352 5355 5357 5359 5362 5366 5371 5373 5376 5379 5383 5389 5394 5398 5401 5405 5409 5412 5414 5419 5423 5427 5431 5435 5440 5447 5453 5455 5457 5461 5465 5469 5471 5473
5324 5326 5328 5330 5332 5334 5336 5337 5339 5341 5344 5346 5348 5351 5355 5360 5362 5364 5367 5372 5377 5382 5387 5391 5394 5398 5402 5403 5407 5413 5418 5422 5424 5428 5433 5438 5442 5446 5448 5450 5454 5457 5460
5313 5314 5316 5318 5320 5322 5324 5326 5327 5330 5332 5335 5338 5341 5344 5348 5351 5353 5355 5361 5366 5371 5376 5379 5382 5386 5388 5390 5395 5402 5407 5412 5414 5418 5422 5426 5430 5433 5436 5439 5443 5445 5448
5300 5302 5304 5306 5308 5310 5313 5315 5316 5318 5321 5324 5327 5329 5332 5336 5339 5341 5344 5348 5354 5358 5363 5367 5370 5372 5375 5379 5384 5390 5396 5399 5402 5406 5410 5413 5417 5420 5423 5426 5429 5432 5435
5290 5292 5294 5296 5298 5300 5302 5304 5305 5307 5309 5312 5315 5318 5320 5323 5326 5329 5332 5335 5340 5345 5350 5354 5357 5359 5362 5367 5372 5377 5380 5384 5390 5393 5397 5401 5405 5409 5411 5413 5415 5417 5420
5279 5282 5284 5285 5287 5288 5290 5292 5294 5295 5298 5301 5303 5306 5309 5312 5315 5316 5319 5323 5326 5330 5335 5339 5341 5345 5349 5353 5358 5362 5366 5370 5375 5381 5385 5390 5393 5396 5397 5399 5401 5402 5404
5269 5272 5273 5275 5277 5278 5279 5280 5282 5284 5287 5289 5292 5295 5298 5300 5302 5304 5306 5309 5313 5316 5320 5323 5326 5330 5334 5338 5343 5347 5352 5356 5361 5366 5371 5374 5378 5380 5383 5385 5387 5388 5389
5259 5261 5263 5265 5266 5267 5268 5269 5271 5274 5275 5279 5282 5284 5286 5288 5289 5291 5292 5296 5299 5303 5306 5309 5312 5316 5320 5324 5328 5332 5336 5341 5346 5350 5354 5358 5362 5366 5369 5370 5372 5373 5375
5250 5252 5254 5255 5256 5257 5258 5260 5262 5263 5266 5269 5270 5272 5274 5276 5277 5278 5280 5283 5286 5289 5292 5296 5300 5303 5306 5310 5314 5317 5321 5326 5330 5335 5339 5344 5347 5351 5353 5355 5358 5360 5362
5241 5242 5244 5246 5247 5248 5249 5251 5254 5256 5257 5259 5260 5261 5263 5265 5265 5267 5268 5271 5274 5277 5280 5283 5286 5289 5292 5296 5299 5303 5308 5312 5317 5320 5325 5330 5333 5336 5339 5340 5343 5345 5348
5233 5234 5235 5237 5237 5239 5240 5242 5244 5246 5248 5249 5250 5251 5252 5252 5253 5255 5256 5259 5261 5263 5266 5270 5273 5276 5279 5283 5286 5290 5294 5299 5304 5308 5312 5315 5318 5322 5325 5326 5328 5331 5333
5226 5227 5228 5229 5230 5231 5232 5233 5234 5235 5236 5238 5239 5239 5240 5240 5241 5242 5244 5246 5249 5251 5253 5257 5260 5263 5266 5270 5274 5278 5282 5287 5291 5295 5299 5302 5305 5308 5311 5312 5314 5316 5319
5219 5220 5221 5222 5223 5223 5224 5224 5224 5225 5226 5226 5227 5228 5229 5230 5230 5231 5232 5234 5237 5240 5242 5245 5249 5252 5255 5258 5262 5267 5271 5276 5279 5283 5287 5290 5293 5295 5297 5299 5301 5304 5307
5213 5214 5213 5214 5215 5215 5215 5215 5215 5215 5216 5216 5216 5217 5219 5220 5220 5221 5223 5225 5227 5230 5233 5235 5238 5241 5245 5248 5252 5256 5261 5265 5268 5272 5276 5279 5281 5282 5284 5286 5289 5291 5294
5205 5205 5206 5207 5207 5206 5206 5206 5207 5207 5207 5207 5208 5208 5209 5210 5211 5212 5214 5216 5218 5221 5224 5227 5230 5232 5235 5239 5243 5247 5251 5255 5258 5261 5265 5267 5268 5270 5272 5274 5276 5278 5281
5199 5199 5199 5199 5199 5199 5199 5199 5199 5199 5199 5199 5200 5201 5201 5202 5203 5204 5206 5208 5210 5212 5215 5218 5221 5224 5227 5230 5233 5237 5241 5245 5248 5252 5254 5257 5258 5260 5261 5263 5265 5268 5270
5194 5193 5193 5192 5192 5192 5192 5192 5191 5191 5191 5192 5192 5193 5193 5194 5195 5196 5198 5200 5202 5205 5207 5210 5213 5216 5219 5222 5225 5229 5232 5235 5238 5241 5244 5247 5248 5249 5251 5252 5255 5257 5259
5188 5187 5187 5186 5186 5186 5186 5185 5185 5185 5185 5185 5185 5186 5186 5187 5188 5189 5191 5193 5195 5198 5201 5203 5206 5209 5212 5215 5218 5221 5224 5227 5230 5232 5235 5237 5239 5240 5241 5242 5244 5246 5247
5182 5181 5180 5180 5180 5179 5179 5179 5178 5178 5178 5178 5179 5179 5180 5181 5182 5183 5185 5187 5189 5192 5195 5197 5200 5203 5206 5209 5211 5214 5217 5220 5223 5225 5226 5228 5229 5231 5231 5232 5233 5235 5236